Location: Te Maire Creek
(41.1333°S, 175.9167°E)
Time: 16:06:40
(UTC+00:00)

Cosmos 2263 Rocket - Pass Details

Date: 19 May 2024
Orbit: 824 x 846 km, 71.0° (Epoch: 11 June)

Event Time Altitude Azimuth Distance (km) Brightness Sun altitude
Exits shadow 16:40:50 51° 19° (NNE) 1,068 2.7 -30.1°
Drops below altitude 10° 16:44:59 10° 21° (NNE) 2,470 4.8 -29.3°
Sets 16:47:25 0° 21° (NNE) 3,396 5.6 -28.9°
